User: anonymous
Location: Unspecified
(0.0000°N, 0.0000°E)
Time: 16:06:43
(UTC+02:00)
Language:

Helios 1A Rocket - Orbit

View from above orbital plane
View from above orbital plane
View from above satellite
View from above satellite

Ground track
Ground track

The orbit data is extracted from the following two-line orbital elements,

1 23608U 95033D   14263.79518144  .00001990  00000-0  19919-3 0  3247
2 23608 098.2836 130.2910 0017154 311.6371 048.3377 14.92582061 38284
Epoch (UTC): 20 September 2014 19:05:03
Eccentricity: 0.0017154
inclination: 98.2836°
perigee height: 578 km
apogee height: 602 km
right ascension of ascending node: 130.2910°
argument of perigee: 311.6371°
revolutions per day: 14.92582061
mean anomaly at epoch: 48.3377°
orbit number at epoch: 3828

The dashed part of the orbit path shows where the satellite is in the earth's shadow,  

DLR